CW4438 Weather Reports


Display with metric or nautical units.
time (UTC)temp
F
wind
direction
speed
MPH
gust
MPH
rain 1hr
in
rain 24hr
in
rain mn
in
humidity
%
barometer
mb
20260903174303 97 189 3.0 9.0 0.00 0.00 0.00 43 1015.0
20260903173804 96 192 4.0 9.0 0.00 0.00 0.00 42 1015.0
20260903173304 96 198 4.0 9.0 0.00 0.00 0.00 42 1015.2
20260903172803 96 150 4.0 9.0 0.00 0.00 0.00 42 1015.4
20260903171804 96 180 4.0 10.0 0.00 0.00 0.00 43 1015.4
20260903170803 95 133 4.0 8.0 0.00 0.00 0.00 45 1015.5
20260903165804 95 205 3.0 8.0 0.00 0.00 0.00 45 1015.6
20260903164804 95 90 3.0 9.0 0.00 0.00 0.00 46 1015.8
20260903164304 94 244 3.0 10.0 0.00 0.00 0.00 46 1015.8
20260903163304 94 255 3.0 8.0 0.00 0.00 0.00 46 1016.0
20260903162804 94 273 3.0 7.0 0.00 0.00 0.00 46 1016.0
20260903161304 93 229 3.0 8.0 0.00 0.00 0.00 47 1016.0
20260903160804 93 144 2.0 7.0 0.00 0.00 0.00 47 1016.0
20260903155804 92 160 3.0 7.0 0.00 0.00 0.00 48 1016.1
20260903154804 92 215 3.0 6.0 0.00 0.00 0.00 50 1016.1
20260903154304 92 184 3.0 6.0 0.00 0.00 0.00 50 1016.1
20260903153804 92 195 3.0 9.0 0.00 0.00 0.00 50 1016.1
20260903153304 91 204 3.0 9.0 0.00 0.00 0.00 50 1016.1
20260903152804 91 281 2.0 7.0 0.00 0.00 0.00 52 1016.1
20260903152306 91 197 3.0 6.0 0.00 0.00 0.00 51 1016.1
20260903151803 90 162 3.0 8.0 0.00 0.00 0.00 52 1016.0
20260903151304 90 158 3.0 8.0 0.00 0.00 0.00 52 1016.1
20260903150803 90 269 3.0 8.0 0.00 0.00 0.00 53 1016.0
20260903150303 90 224 3.0 5.0 0.00 0.00 0.00 54 1016.1
20260903145802 89 74 2.0 5.0 0.00 0.00 0.00 54 1016.2
20260903145305 89 209 2.0 7.0 0.00 0.00 0.00 56 1016.3
20260903144302 87 138 2.0 7.0 0.00 0.00 0.00 57 1016.3
20260903143803 87 94 3.0 7.0 0.00 0.00 0.00 58 1016.5
20260903143303 87 200 3.0 7.0 0.00 0.00 0.00 59 1016.5
20260903142803 86 198 3.0 7.0 0.00 0.00 0.00 59 1016.5
20260903142306 86 216 3.0 7.0 0.00 0.00 0.00 60 1016.6
20260903141803 85 215 2.0 6.0 0.00 0.00 0.00 62 1016.6
20260903141303 85 215 2.0 5.0 0.00 0.00 0.00 63 1016.7
20260903140802 84 151 2.0 5.0 0.00 0.00 0.00 64 1016.8
20260903140302 83 203 2.0 5.0 0.00 0.00 0.00 66 1016.7
20260903135803 82 169 2.0 5.0 0.00 0.00 0.00 68 1016.8
20260903135306 81 197 2.0 5.0 0.00 0.00 0.00 70 1016.8
20260903130304 76 153 1.0 3.0 0.00 0.00 0.00 83 1016.7
20260903125803 75 136 0.0 3.0 0.00 0.00 0.00 85 1016.7
20260903125305 74 118 0.0 1.0 0.00 0.00 0.00 86 1016.7
20260903124802 73 21 0.0 1.0 0.00 0.00 0.00 86 1016.7
20260903124303 73 84 0.0 2.0 0.00 0.00 0.00 86 1016.7
20260903123303 73 105 0.0 2.0 0.00 0.00 0.00 86 1016.6
20260903122803 73 103 0.0 0.0 0.00 0.00 0.00 85 1016.5
20260903121803 73 103 0.0 0.0 0.00 0.00 0.00 85 1016.3
20260903121302 73 103 0.0 0.0 0.00 0.00 0.00 84 1016.2
20260903120803 73 103 0.0 1.0 0.00 0.00 0.00 84 1016.2
20260903115305 73 98 0.0 1.0 0.00 0.00 0.00 83 1016.1
20260903114803 74 97 0.0 1.0 0.00 0.00 0.00 84 1016.0
20260903114302 74 98 0.0 1.0 0.00 0.00 0.00 83 1016.0
20260903113803 74 97 0.0 1.0 0.00 0.00 0.00 83 1016.0
20260903113301 74 96 0.0 1.0 0.00 0.00 0.00 83 1015.9
20260903112801 74 96 0.0 2.0 0.00 0.00 0.00 83 1015.9
20260903112301 74 82 0.0 2.0 0.00 0.00 0.00 83 1015.9
20260903111801 74 92 0.0 1.0 0.00 0.00 0.00 83 1015.9
20260903111301 74 79 0.0 1.0 0.00 0.00 0.00 83 1015.9
20260903110801 74 79 0.0 2.0 0.00 0.00 0.00 83 1015.9
20260903110301 74 68 0.0 2.0 0.00 0.00 0.00 83 1015.9
20260903105801 74 92 0.0 1.0 0.00 0.00 0.00 83 1015.9
20260903105301 74 94 0.0 1.0 0.00 0.00 0.00 83 1016.0
20260903104801 74 86 0.0 1.0 0.00 0.00 0.00 82 1015.9
20260903104301 74 84 0.0 1.0 0.00 0.00 0.00 82 1015.9
20260903103800 74 93 0.0 1.0 0.00 0.00 0.00 82 1015.9
20260903103301 74 96 0.0 1.0 0.00 0.00 0.00 82 1015.9
20260903102754 74 94 0.0 0.0 0.00 0.00 0.00 82 1015.9
20260903102249 74 92 0.0 1.0 0.00 0.00 0.00 81 1015.9
20260903101749 74 94 0.0 1.0 0.00 0.00 0.00 81 1015.8
20260903101247 74 94 0.0 1.0 0.00 0.00 0.00 81 1015.8
20260903100744 74 94 0.0 2.0 0.00 0.00 0.00 81 1015.8
20260903100245 74 29 0.0 2.0 0.00 0.00 0.00 81 1015.7
20260903095742 74 23 0.0 2.0 0.00 0.00 0.00 81 1015.8
20260903095240 74 24 0.0 2.0 0.00 0.00 0.00 81 1015.8
20260903094237 75 24 0.0 1.0 0.00 0.00 0.00 81 1015.8
20260903093735 75 24 0.0 1.0 0.00 0.00 0.00 80 1015.7
20260903093232 75 24 0.0 0.0 0.00 0.00 0.00 80 1015.7
20260903092730 75 23 0.0 0.0 0.00 0.00 0.00 80 1015.7
20260903092232 75 24 0.0 1.0 0.00 0.00 0.00 80 1015.7
20260903091730 75 24 0.0 1.0 0.00 0.00 0.00 80 1015.7
20260903090730 75 68 0.0 1.0 0.00 0.00 0.00 79 1015.6
20260903090231 75 71 0.0 1.0 0.00 0.00 0.00 79 1015.6
20260903085730 75 71 0.0 1.0 0.00 0.00 0.00 79 1015.6
20260903084731 75 72 0.0 1.0 0.00 0.00 0.00 79 1015.6
20260903084230 75 71 0.0 1.0 0.00 0.00 0.00 79 1015.7
20260903083730 75 69 0.0 1.0 0.00 0.00 0.00 79 1015.6
20260903083230 75 71 0.0 0.0 0.00 0.00 0.00 79 1015.6
20260903082731 75 70 0.0 0.0 0.00 0.00 0.00 79 1015.7
20260903081731 75 69 0.0 0.0 0.00 0.00 0.00 79 1015.5
20260903081231 76 70 0.0 0.0 0.00 0.00 0.00 78 1015.5
20260903080731 76 69 0.0 1.0 0.00 0.00 0.00 78 1015.6
20260903080230 76 73 0.0 1.0 0.00 0.00 0.00 77 1015.5
20260903075731 76 74 0.0 1.0 0.00 0.00 0.00 77 1015.4
20260903075231 76 69 0.0 0.0 0.00 0.00 0.00 77 1015.4
20260903074732 76 71 0.0 0.0 0.00 0.00 0.00 76 1015.4
20260903074232 77 72 0.0 0.0 0.00 0.00 0.00 76 1015.4
20260903073732 77 69 0.0 0.0 0.00 0.00 0.00 75 1015.4
20260903073232 77 71 0.0 1.0 0.00 0.00 0.00 75 1015.4
20260903072732 77 70 0.0 1.0 0.00 0.00 0.00 75 1015.4
20260903072232 77 72 0.0 1.0 0.00 0.00 0.00 74 1015.4
20260903071730 78 74 0.0 1.0 0.00 0.00 0.00 74 1015.4
20260903071231 78 70 0.0 1.0 0.00 0.00 0.00 73 1015.4
20260903070730 78 72 0.0 2.0 0.00 0.00 0.00 73 1015.3
20260903070231 78 74 0.0 2.0 0.00 0.00 0.00 73 1015.4
20260903065731 78 74 0.0 2.0 0.00 0.00 0.00 73 1015.4
20260903065231 78 93 1.0 2.0 0.00 0.00 0.00 73 1015.4
20260903064730 78 83 0.0 2.0 0.00 0.00 0.00 73 1015.3
20260903064231 78 69 0.0 1.0 0.00 0.00 0.00 73 1015.3
20260903063730 78 69 0.0 1.0 0.00 0.00 0.00 72 1015.4
20260903063231 78 67 0.0 2.0 0.00 0.00 0.00 72 1015.4
20260903062731 78 71 1.0 2.0 0.00 0.00 0.00 71 1015.4
20260903062230 78 76 0.0 2.0 0.00 0.00 0.00 71 1015.3
20260903061730 79 76 0.0 1.0 0.00 0.00 0.00 71 1015.3
20260903060729 79 74 0.0 1.0 0.00 0.00 0.00 70 1015.3
20260903060229 79 73 0.0 1.0 0.00 0.00 0.00 69 1015.3
20260903055727 80 77 0.0 2.0 0.00 0.00 0.00 69 1015.3
20260903054726 80 69 0.0 1.0 0.00 0.00 0.00 67 1015.3
20260903054225 81 67 0.0 2.0 0.00 0.00 0.00 67 1015.2
20260903053715 81 57 1.0 2.0 0.00 0.00 0.00 66 1015.2
20260903053213 81 58 1.0 2.0 0.00 0.00 0.00 66 1015.2
20260903052209 81 78 0.0 2.0 0.00 0.00 0.00 65 1015.2
20260903051709 82 101 0.0 3.0 0.00 0.00 0.00 64 1015.2
20260903051207 82 76 0.0 3.0 0.00 0.00 0.00 64 1015.2
20260903050707 82 94 0.0 2.0 0.00 0.00 0.00 63 1015.2
20260903050207 82 109 0.0 2.0 0.00 0.00 0.00 63 1015.2
20260903045205 83 90 0.0 2.0 0.00 0.00 0.00 62 1015.1
20260903044703 83 103 0.0 3.0 0.00 0.00 0.00 61 1015.1
20260903044204 83 17 0.0 3.0 0.00 0.00 0.00 61 1015.1
20260903043703 84 16 0.0 3.0 0.00 0.00 0.00 60 1015.0
20260903043204 84 17 0.0 1.0 0.00 0.00 0.00 60 1015.1
20260903042704 84 24 0.0 2.0 0.00 0.00 0.00 59 1015.2
20260903041652 85 17 0.0 3.0 0.00 0.00 0.00 59 1015.2
20260903041151 85 19 0.0 3.0 0.00 0.00 0.00 58 1015.2
20260903035631 85 92 1.0 3.0 0.00 0.00 0.00 57 1015.2
20260903035131 85 92 1.0 5.0 0.00 0.00 0.00 57 1015.2
20260903034631 85 55 1.0 5.0 0.00 0.00 0.00 57 1015.2
20260903034131 85 75 1.0 4.0 0.00 0.00 0.00 57 1015.2
20260903033632 86 39 1.0 3.0 0.00 0.00 0.00 57 1015.2
20260903032130 86 67 1.0 5.0 0.00 0.00 0.00 56 1015.2
20260903031631 86 94 1.0 6.0 0.00 0.00 0.00 56 1015.2
20260903030631 87 84 1.0 5.0 0.00 0.00 0.00 56 1015.2
20260903030130 87 85 1.0 3.0 0.00 0.00 0.00 56 1015.1
20260903025631 87 56 1.0 5.0 0.00 0.00 0.00 55 1015.1
20260903025131 87 90 1.0 5.0 0.00 0.00 0.00 55 1015.1
20260903024631 87 133 1.0 7.0 0.00 0.00 0.00 55 1015.1
20260903024131 87 135 1.0 7.0 0.00 0.00 0.00 55 1015.0
20260903023631 87 92 1.0 6.0 0.00 0.00 0.00 54 1014.9
20260903023130 88 97 1.0 6.0 0.00 0.00 0.00 54 1014.9
20260903022632 88 84 1.0 5.0 0.00 0.00 0.00 54 1014.8
20260903022130 88 123 1.0 4.0 0.00 0.00 0.00 53 1014.8
20260903021631 88 105 1.0 4.0 0.00 0.00 0.00 53 1014.7
20260903021130 88 120 1.0 4.0 0.00 0.00 0.00 52 1014.6
20260903020631 89 95 1.0 5.0 0.00 0.00 0.00 52 1014.6
20260903020130 89 111 1.0 6.0 0.00 0.00 0.00 52 1014.6
20260903015632 89 203 1.0 6.0 0.00 0.00 0.00 51 1014.4
20260903015131 89 85 1.0 5.0 0.00 0.00 0.00 51 1014.4
20260903014630 89 140 1.0 5.0 0.00 0.00 0.00 50 1014.2
20260903014127 90 169 1.0 5.0 0.00 0.00 0.00 50 1014.2
20260903013621 90 57 1.0 4.0 0.00 0.00 0.00 49 1014.1
20260903013106 90 135 1.0 4.0 0.00 0.00 0.00 49 1014.0
20260903011605 91 141 2.0 5.0 0.00 0.00 0.00 47 1013.8
20260903010606 91 175 1.0 4.0 0.00 0.00 0.00 46 1013.6
20260903010105 92 136 1.0 4.0 0.00 0.00 0.00 45 1013.6
20260903005606 92 246 1.0 4.0 0.00 0.00 0.00 45 1013.6
20260903005107 92 171 1.0 4.0 0.00 0.00 0.00 44 1013.6
20260903004604 93 62 1.0 4.0 0.00 0.00 0.00 43 1013.5
20260903003604 93 151 1.0 4.0 0.00 0.00 0.00 41 1013.5
20260903003103 94 153 0.0 4.0 0.00 0.00 0.00 41 1013.4
20260903002103 94 181 1.0 3.0 0.00 0.00 0.00 40 1013.5
20260903001602 95 166 1.0 5.0 0.00 0.00 0.00 39 1013.5
20260903001103 95 161 1.0 5.0 0.00 0.00 0.00 39 1013.4
20260903000603 95 204 1.0 3.0 0.00 0.00 0.00 39 1013.4
20260903000103 95 190 1.0 3.0 0.00 0.00 0.00 39 1013.4
20260902235603 96 169 2.0 4.0 0.00 0.00 0.00 38 1013.4
20260902235102 96 186 1.0 4.0 0.00 0.00 0.00 38 1013.4
20260902234603 96 197 1.0 2.0 0.00 0.00 0.00 37 1013.5
20260902234103 96 76 1.0 3.0 0.00 0.00 0.00 36 1013.5
20260902233103 96 71 2.0 5.0 0.00 0.00 0.00 36 1013.5
20260902232603 96 189 2.0 5.0 0.00 0.00 0.00 35 1013.6
20260902232104 97 140 1.0 4.0 0.00 0.00 0.00 36 1013.6
20260902231604 97 141 2.0 5.0 0.00 0.00 0.00 35 1013.6
20260902231102 97 111 2.0 7.0 0.00 0.00 0.00 35 1013.6
20260902230601 97 113 2.0 7.0 0.00 0.00 0.00 35 1013.6
20260902225602 98 192 2.0 4.0 0.00 0.00 0.00 34 1013.8
20260902225100 98 198 2.0 9.0 0.00 0.00 0.00 35 1013.8
20260902224558 98 202 2.0 9.0 0.00 0.00 0.00 35 1013.8
20260902224055 99 102 2.0 6.0 0.00 0.00 0.00 34 1013.9
20260902223555 99 207 2.0 6.0 0.00 0.00 0.00 34 1013.9
20260902223055 99 205 2.0 6.0 0.00 0.00 0.00 35 1014.0
20260902222556 99 265 2.0 5.0 0.00 0.00 0.00 35 1013.9
20260902222055 98 149 2.0 5.0 0.00 0.00 0.00 34 1013.9
20260902221554 99 223 2.0 5.0 0.00 0.00 0.00 34 1014.0
20260902221053 99 144 2.0 4.0 0.00 0.00 0.00 35 1013.9
20260902220552 99 137 2.0 7.0 0.00 0.00 0.00 34 1014.0
20260902220049 100 143 3.0 8.0 0.00 0.00 0.00 33 1014.0
20260902215547 101 90 3.0 8.0 0.00 0.00 0.00 33 1014.0
20260902215047 101 112 2.0 6.0 0.00 0.00 0.00 33 1014.1
20260902214548 102 238 2.0 5.0 0.00 0.00 0.00 32 1014.1
20260902213046 101 132 2.0 5.0 0.00 0.00 0.00 33 1014.2
20260902212544 100 113 2.0 5.0 0.00 0.00 0.00 33 1014.2
20260902212044 100 159 2.0 9.0 0.00 0.00 0.00 34 1014.3
20260902211544 99 165 3.0 9.0 0.00 0.00 0.00 35 1014.3
20260902210542 99 119 3.0 7.0 0.00 0.00 0.00 35 1014.5
20260902210032 98 65 2.0 6.0 0.00 0.00 0.00 36 1014.3
20260902205532 98 119 2.0 6.0 0.00 0.00 0.00 35 1014.5
20260902204531 99 211 2.0 8.0 0.00 0.00 0.00 35 1014.6
20260902203531 101 113 3.0 11.0 0.00 0.00 0.00 33 1014.6
20260902203031 101 159 2.0 10.0 0.00 0.00 0.00 33 1014.6
20260902201531 101 231 2.0 7.0 0.00 0.00 0.00 32 1014.8
20260902195030 101 74 3.0 9.0 0.00 0.00 0.00 33 1015.3
20260902194531 101 141 2.0 9.0 0.00 0.00 0.00 33 1015.3
20260902194031 101 216 1.0 3.0 0.00 0.00 0.00 35 1015.4
20260902193531 100 200 2.0 7.0 0.00 0.00 0.00 36 1015.4
20260902193030 100 61 2.0 7.0 0.00 0.00 0.00 35 1015.5
20260902192530 101 149 2.0 6.0 0.00 0.00 0.00 34 1015.7
20260902192030 102 144 3.0 6.0 0.00 0.00 0.00 34 1015.7
20260902191531 102 279 3.0 7.0 0.00 0.00 0.00 34 1015.7
20260902190530 101 199 3.0 6.0 0.00 0.00 0.00 36 1016.0
20260902190026 101 192 2.0 8.0 0.00 0.00 0.00 35 1016.1
20260902185517 101 355 3.0 8.0 0.00 0.00 0.00 35 1016.1
20260902185017 100 300 3.0 8.0 0.00 0.00 0.00 36 1016.1
20260902184017 100 61 2.0 8.0 0.00 0.00 0.00 37 1016.2
20260902183517 99 248 3.0 8.0 0.00 0.00 0.00 38 1016.3
20260902182517 100 269 3.0 7.0 0.00 0.00 0.00 37 1016.6
20260902181520 100 190 2.0 6.0 0.00 0.00 0.00 37 1016.8
20260902181019 99 219 2.0 5.0 0.00 0.00 0.00 37 1016.9
20260902180516 99 0.0 0.0 0.00 0.00 0.00 39 1016.9